Weather History for West Palm Beach, FL

Change the Weather History Date:

Thursday, January 16, 2014

  Actual Average Record
Temperature  
Mean Temperature 52 °F 65 °F  
Max Temperature 61 °F 74 °F 84 °F (1954)
Min Temperature 43 °F 57 °F 34 °F (1921)
Degree Days  
Heating Degree Days 13 3  
Month to date heating degree days 32 48  
Since 1 July heating degree days 36 119  
Cooling Degree Days 0 3  
Month to date cooling degree days 96 55  
Year to date cooling degree days 96 55  
Growing Degree Days 4 (Base 50)    
Moisture  
Dew Point 39 °F    
Average Humidity 57    
Maximum Humidity 86    
Minimum Humidity 28    
Precipitation  
Precipitation 0.00 in 0.10 in 1.86 in (1991)
Month to date precipitation 6.72 1.72  
Year to date precipitation 6.72 1.72  
Snow  
Snow 0.00 in - - ()
Month to date snowfall 0.0  
Since 1 July snowfall 0.0  
Snow Depth 0.00 in    
Sea Level Pressure  
Sea Level Pressure 30.06 in    
Wind  
Wind Speed 11 mph (NW)    
Max Wind Speed 24 mph    
Max Gust Speed 33 mph    
Visibility 10 miles    
Events      
T = Trace of Precipitation, MM = Missing Value Source: NWS Daily Summary

Daily Weather History Graph

Daily Weather History Graph

Search for Another Location

Airport:

Trip Planner

Search our weather history database for the weather conditions in past years. The results will help you decide how hot, cold, wet, or windy it might be!

Date:

Astronomy

Jan. 16, 2014 Rise Set
Actual Time 7:10 AM EST 5:50 PM EST
Civil Twilight 6:45 AM EST 6:15 PM EST
Nautical Twilight 6:17 AM EST 6:43 PM EST
Astronomical Twilight 5:49 AM EST 7:11 PM EST
Moon 6:31 PM EST (1/16) 7:10 AM EST (1/16)
Length of Visible Light 11h 29m
Length of Day
10h 40m
Full, 100% of the Moon is Illuminated
Jan 16
Full
Jan 24
Last Quarter
Jan 30
New
Feb 6
First Quarter
Feb 14
Full

Hourly Weather History & Observations

Time (EST) Temp. Windchill Dew Point Humidity Pressure Visibility Wind Dir Wind Speed Gust Speed Precip Events Conditions
12:53 AM 57.9 °F - 52.0 °F 81% 29.99 in 10.0 mi WSW 5.8 mph - N/A   Overcast
1:53 AM 57.0 °F - 53.1 °F 87% 29.95 in 10.0 mi West 4.6 mph - N/A   Overcast
2:53 AM 57.9 °F - 52.0 °F 81% 29.96 in 10.0 mi WSW 4.6 mph - N/A   Overcast
3:53 AM 57.0 °F - 52.0 °F 83% 29.95 in 10.0 mi WSW 3.5 mph - N/A   Overcast
4:53 AM 57.0 °F - 53.1 °F 87% 29.96 in 10.0 mi West 12.7 mph 21.9 mph N/A   Overcast
5:53 AM 57.0 °F - 50.0 °F 77% 29.99 in 10.0 mi NW 15.0 mph 27.6 mph N/A   Mostly Cloudy
6:53 AM 54.0 °F - 48.0 °F 80% 30.00 in 10.0 mi NW 12.7 mph 26.5 mph N/A   Mostly Cloudy
7:53 AM 52.0 °F - 46.0 °F 80% 30.05 in 10.0 mi NW 18.4 mph - N/A   Mostly Cloudy
8:53 AM 54.0 °F - 46.0 °F 75% 30.07 in 10.0 mi WNW 12.7 mph - N/A   Scattered Clouds
9:53 AM 55.9 °F - 44.1 °F 64% 30.09 in 10.0 mi NW 17.3 mph 23.0 mph N/A   Scattered Clouds
10:53 AM 57.0 °F - 41.0 °F 55% 30.09 in 10.0 mi NW 19.6 mph 26.5 mph N/A   Scattered Clouds
11:53 AM 57.9 °F - 37.9 °F 47% 30.09 in 10.0 mi NW 18.4 mph - N/A   Scattered Clouds
12:53 PM 59.0 °F - 37.0 °F 44% 30.07 in 10.0 mi NW 15.0 mph - N/A   Scattered Clouds
1:53 PM 59.0 °F - 30.0 °F 33% 30.06 in 10.0 mi WNW 16.1 mph - N/A   Partly Cloudy
2:53 PM 59.0 °F - 26.1 °F 28% 30.06 in 10.0 mi NW 16.1 mph 20.7 mph N/A   Partly Cloudy
3:53 PM 57.9 °F - 26.1 °F 30% 30.07 in 10.0 mi WNW 15.0 mph 24.2 mph N/A   Partly Cloudy
4:53 PM 55.9 °F - 26.1 °F 32% 30.09 in 10.0 mi NW 9.2 mph - N/A   Clear
5:53 PM 53.1 °F - 27.0 °F 37% 30.10 in 10.0 mi WNW 10.4 mph - N/A   Clear
6:53 PM 48.9 °F - 30.0 °F 48% 30.11 in 10.0 mi NW 6.9 mph - N/A   Clear
7:53 PM 50.0 °F - 30.9 °F 48% 30.12 in 10.0 mi NNW 5.8 mph - N/A   Clear
8:53 PM 50.0 °F - 32.0 °F 50% 30.12 in 10.0 mi North 3.5 mph - N/A   Clear
9:53 PM 48.0 °F - 30.9 °F 52% 30.14 in 10.0 mi NNW 4.6 mph - N/A   Clear
10:53 PM 48.0 °F - 30.9 °F 52% 30.14 in 10.0 mi Calm Calm - N/A   Clear
11:53 PM 45.0 °F 41.8 °F 35.1 °F 68% 30.14 in 10.0 mi NW 5.8 mph - N/A   Partly Cloudy